Tracking 35331 objects as of 14-Sep-2026
HD Live streaming from Space Station
objects crossing your sky now

SOYUZ 18 DEB


SOYUZ 18 DEB is no longer on orbit


NORAD ID: 8020
Int'l Code: 1975-044N
Launch date: May 24, 1975
Source: Commonwealth of Independent States (former USSR) (CIS)
Launch site: TYURATAM MISSILE AND SPACE COMPLEX (TTMTR)
Decay date: 1976-03-06

Note: This is SATELLITE DEBRIS
Your satellite tracking list
Your tracking list is empty




NASA's NSSDC Master Catalog

Two Line Element Set (TLE):
1 08020U 75044  N 76060.53375911  .01438229 +00000-0 +00000-0 0  9992
2 08020 051.5785 082.4726 0000009 277.5274 082.5705 16.28364002068222
Source of the keplerian elements: AFSPC